Voltar ao catálogo

KUIPER-00454

AtivoComunicaçõesLEO
NORAD 68948·PAYLOAD·🇺🇸 United States

Lançado Apr 30, 2026 de Guiana Space Centre

Loading…

Próximas Passagens (próximas 24 horas)

TLE

AtualizadoSource: CelesTrak SupGP

Época: Sep 15, 2026, 05:22 UTC

1 68948C 26098AF  26258.22368056  .00003123  00000+0  40845-3 0  2585
2 68948  51.9006  27.5059 0001100 112.7842 122.4968 14.79968623    11

Acompanhe KUIPER-00454 em tempo real com AllMySat

Download on the App Store